Roanoke, LA (70581)

9:17 AM CST on February 08, 2016 (GMT -0600)
Jennings | | Change Station
CLOSE
Current Station
Airport
Location: Jennings,
Elevation: 23 ft
Nearby Weather Stations
Active Advisory: Wind Advisory

Elev 23 ft 30.24 °N, 92.67 °W | Updated 21 minutes ago

Clear
Clear
48 °F
Feels Like 48 °F
N
13
Wind Variable Wind from WNW

Today
High -- | Low -- °F
--% Chance of Precip.
Yesterday
High -- | Low -- °F
Precip. -- in
Pressure 30.23 in
Visibility 10.0 miles
Clouds Clear
Dew Point 34 °F
Humidity 58%
Rainfall 0.00 in
Snow Depth Not available.
6:57 AM 5:53 PM
New Moon, 0% visible
METAR K3R7 081456Z AUTO 30011KT 10SM CLR 09/01 A3023 RMK AO2
Pressure 30.23 in
Visibility 10.0 miles
Clouds Clear
Dew Point 34 °F
Humidity 58%
Rainfall 0.00 in
Snow Depth Not available.
6:57 AM 5:53 PM
New Moon, 0% visible
METAR K3R7 081456Z AUTO 30011KT 10SM CLR 09/01 A3023 RMK AO2

10-Day Weather Forecast

Almanac

Astronomy

Feb. 08, 2016 Rise Set
Actual Time
Civil Twilight
Nautical Twilight
Astronomical Twilight
Moon
Length of Visible Light
Length of Day
Tomorrow will be .
, % of the Moon is Illuminated

Today's Extremes

State Highs State Lows

Community

WunderPhotos

Upload Photos

1,891,450 photos uploaded!

WunderBlog® & News

Nearby

Air Quality

  Air Quality AQ Index Pollutant
Not available.

Snow Depth

Station Depth Elevation

Earthquake Activity

City Distance Mag. Time & Date
Minimum magnitude displayed is 2.5.

Coastal Water Temperatures

Place Temperature

Stations

Nearby Weather Stations

Station Location Temp. Windchill Dew Point Humidity Wind Precip. Elev Updated Type
                   

Watches & Warnings

Wind Advisory
Issued: 7:34 AM CST Feb. 8, 2016 – National Weather Service

... Wind Advisory remains in effect until 6 PM CST this evening...

* timing... late morning through sunset.

* Winds... sustained 20 to 25 mph... with gusts above 25 to 30
mph.

* Impacts... vehicles and high profile vehicles should use
caution as sudden gusts can cause loss of control. Loose lawn
furniture or trash cans may be blow around.

Precautionary/preparedness actions...

A Wind Advisory means that winds of 20 mph are expected. Winds
this strong can make driving difficult... especially for high
profile vehicles. Use extra caution.